Список аэропортов
Фактическая погода:

16 декабря, 13:50
Температура: +18°C (+17.8*)
Ветер: сев.-западный 4 м/с
Давление: *758 мм
неб. кучевые 600 м
разорв. обл.
750 м
Время (МСК)Темп. СВетерВлажностьДавлениеОблачностьОсадки
09:00+14ЮВ, 7 м/с76%1010 гПамалооблачно
10:00+15Ю, 7 м/с72%1010 гПас прояснениями
11:00+16Ю, 7 м/с66%1010 гПас прояснениями
12:00+17Ю, 7 м/с64%1010 гПамалооблачно
13:00+18Ю, 4 м/с61%1009 гПаясносл. дождь
14:00+17З, 2 м/с66%1009 гПаоблачнодождь
15:00+16З, 5 м/с77%1009 гПас прояснениямидождь
16:00+17З, 5 м/с74%1009 гПас прояснениямидождь
17:00+16З, 6 м/с69%1010 гПамалооблачно
18:00+16З, 6 м/с66%1010 гПамалооблачно
19:00+16З, 6 м/с66%1011 гПамалооблачно
20:00+16З, 6 м/с66%1012 гПамалооблачно
21:00+15З, 5 м/с67%1012 гПамалооблачно
22:00+15З, 6 м/с73%1012 гПас прояснениямисл. дождь
23:00+15З, 7 м/с75%1013 гПаоблачнодождь
17 декабря
00:00+16З, 8 м/с73%1013 гПаоблачно
01:00+15З, 9 м/с71%1013 гПаоблачно
02:00+15З, 9 м/с70%1013 гПас прояснениями
03:00+14З, 9 м/с69%1013 гПас прояснениями
04:00+14З, 9 м/с67%1013 гПамалооблачно
05:00+14З, 8 м/с68%1013 гПамалооблачно
06:00+14З, 9 м/с72%1013 гПас прояснениями
07:00+14З, 7 м/с73%1014 гПас прояснениямидождь
08:00+14З, 7 м/с74%1014 гПаоблачнодождь
09:00+15З, 7 м/с78%1015 гПаоблачнодождь
10:00+15З, 9 м/с74%1015 гПаоблачносл. дождь
11:00+14З, 9 м/с71%1016 гПаоблачно
12:00+15З, 8 м/с64%1016 гПаоблачно
13:00+15З, 9 м/с65%1016 гПаоблачно
14:00+16З, 9 м/с64%1015 гПамалооблачно
15:00+16З, 9 м/с64%1015 гПамалооблачно
16:00+16З, 8 м/с64%1015 гПамалооблачно
17:00+16З, 7 м/с64%1015 гПамалооблачно
18:00+15З, 7 м/с64%1016 гПамалооблачно
19:00+15З, 6 м/с65%1016 гПамалооблачно
20:00+15З, 5 м/с68%1016 гПас прояснениями
21:00+14ЮЗ, 3 м/с70%1016 гПас прояснениями
22:00+14ЮВ, 4 м/с66%1016 гПаоблачно
23:00+14ЮВ, 5 м/с64%1016 гПаоблачно
18 декабря
00:00+15Ю, 5 м/с76%1016 гПаоблачно
01:00+16Ю, 5 м/с76%1015 гПас прояснениями
02:00+16Ю, 6 м/с76%1015 гПамалооблачно
03:00+17Ю, 6 м/с72%1014 гПас прояснениямидождь
04:00+17Ю, 6 м/с76%1013 гПаоблачнодождь
05:00+17Ю, 7 м/с76%1012 гПаоблачнодождь
06:00+17Ю, 6 м/с74%1012 гПаоблачнодождь
07:00+17ЮЗ, 4 м/с70%1012 гПас прояснениями
08:00+16ЮЗ, 3 м/с72%1012 гПамалооблачно
09:00+15ЮЗ, 2 м/с73%1012 гПаясно